Sant Hilari Sacalm-Els Cortals (La Selva)





Hora UTC 07:50
Temperatura 14.8 ºC
Humitat 91.0 %
Pressió 1010.4 hPa
Pluja 8.9 mm
Velocitat vent 1.6 km/h
Direcció vent ENE

Dades diàries 2023-06-01



Hora UTC (hivern +1h; estiu +2h)
Temperatura (ºC) Humitat (%) Pressió (hPa) Velocitat vent (km/h) Precipitació (mm)
Hora UTC Aire Humitat Pressió Vel. Dir. Vel. Max Dir. Intent. màx 5 min.
00:05 12.8 89.0 1010.3 0.0 ENE 0.0 0.0
00:10 12.8 89.0 1010.3 0.0 ENE 3.2 0.3
00:15 12.8 90.0 1010.4 0.0 ENE 6.4 0.0
00:20 12.8 90.0 1010.3 0.0 ENE 6.4 0.0
00:25 12.8 90.0 1010.4 0.0 ENE 3.2 0.0
00:30 12.7 90.0 1010.3 0.0 ENE 3.2 0.0
00:35 12.8 90.0 1010.2 0.0 ENE 0.0 0.0
00:40 12.8 90.0 1010.2 0.0 ENE 3.2 0.0
00:45 12.7 90.0 1010.1 0.0 ENE 3.2 0.0
00:50 12.7 90.0 1010.2 0.0 ENE 0.0 0.0
00:55 12.7 90.0 1010.1 0.0 ENE 0.0 0.3
01:00 12.7 91.0 1010.2 0.0 ENE 0.0 0.0
01:05 12.7 91.0 1010.1 0.0 ENE 1.6 0.0
01:10 12.7 91.0 1010.1 0.0 ENE 1.6 0.3
01:15 12.7 91.0 1010.1 0.0 ENE 0.0 0.0
01:20 12.7 91.0 1010.0 0.0 ENE 0.0 0.5
01:25 12.6 91.0 1010.0 0.0 ENE 0.0 0.3
01:30 12.6 91.0 1010.0 0.0 ENE 0.0 0.5
01:35 12.6 91.0 1010.0 0.0 ENE 0.0 0.5
01:40 12.6 91.0 1010.0 0.0 ENE 0.0 0.5
01:45 12.6 91.0 1009.9 0.0 ENE 0.0 0.5
01:50 12.6 91.0 1009.9 0.0 ENE 0.0 0.5
01:55 12.5 91.0 1009.9 0.0 ENE 0.0 0.3
02:00 12.5 91.0 1009.9 0.0 ENE 0.0 0.3
02:05 12.4 91.0 1009.9 0.0 ENE 0.0 0.5
02:10 12.4 91.0 1009.8 0.0 ENE 0.0 0.5
02:15 12.4 91.0 1009.9 0.0 ENE 0.0 0.5
02:20 12.4 91.0 1009.8 0.0 ENE 0.0 0.3
02:25 12.3 91.0 1009.8 0.0 ENE 0.0 0.5
02:30 12.3 91.0 1009.8 0.0 ENE 0.0 0.5
02:35 12.3 91.0 1009.8 0.0 ENE 0.0 0.5
02:40 12.3 91.0 1009.7 0.0 ENE 0.0 0.3
02:45 12.3 91.0 1009.7 0.0 ENE 0.0 0.3
02:50 12.3 91.0 1009.7 0.0 ENE 0.0 0.0
02:55 12.2 91.0 1009.6 0.0 ENE 0.0 0.3
03:00 12.2 91.0 1009.6 0.0 ENE 0.0 0.0
03:05 12.2 91.0 1009.6 0.0 ENE 0.0 0.0
03:10 12.2 91.0 1009.6 0.0 ENE 0.0 0.0
03:15 12.2 91.0 1009.5 0.0 ENE 0.0 0.0
03:20 12.2 91.0 1009.5 0.0 ENE 0.0 0.0
03:25 12.1 91.0 1009.5 0.0 ENE 0.0 0.0
03:30 12.1 91.0 1009.4 0.0 ENE 0.0 0.0
03:35 12.1 91.0 1009.4 0.0 ENE 0.0 0.3
03:40 12.1 91.0 1009.5 0.0 ENE 0.0 0.0
03:45 12.0 91.0 1009.5 0.0 ENE 0.0 0.0
03:50 11.9 91.0 1009.4 0.0 ENE 0.0 0.0
03:55 11.9 91.0 1009.4 0.0 ENE 0.0 0.0
04:00 11.8 91.0 1009.4 0.0 ENE 0.0 0.0
04:05 11.8 91.0 1009.4 0.0 ENE 0.0 0.0
04:10 11.8 91.0 1009.5 0.0 ENE 0.0 0.0
04:15 11.8 91.0 1009.4 0.0 ENE 0.0 0.0
04:20 11.8 91.0 1009.5 0.0 ENE 0.0 0.0
04:25 11.8 91.0 1009.4 0.0 ENE 0.0 0.0
04:30 11.8 91.0 1009.6 0.0 ENE 0.0 0.0
04:35 11.8 91.0 1009.5 0.0 ENE 0.0 0.0
04:40 11.8 91.0 1009.4 0.0 ENE 0.0 0.0
04:45 11.7 91.0 1009.4 0.0 ENE 0.0 0.0
04:50 11.7 91.0 1009.5 0.0 ENE 0.0 0.0
04:55 11.7 91.0 1009.4 0.0 ENE 0.0 0.0
05:00 11.6 91.0 1009.5 0.0 ENE 0.0 0.0
05:05 11.6 91.0 1009.5 0.0 ENE 0.0 0.0
05:10 11.5 91.0 1009.5 0.0 ENE 0.0 0.0
05:15 11.5 91.0 1009.5 0.0 ENE 0.0 0.0
05:20 11.4 91.0 1009.4 0.0 ENE 0.0 0.0
05:25 11.4 91.0 1009.4 0.0 ENE 0.0 0.0
05:30 11.6 91.0 1009.4 0.0 ENE 0.0 0.0
05:35 11.6 90.0 1009.4 0.0 ENE 4.8 0.0
05:40 11.6 90.0 1009.6 1.6 ENE 6.4 0.0
05:45 11.7 90.0 1009.7 0.0 ENE 6.4 0.0
05:50 11.8 90.0 1009.8 0.0 ENE 6.4 0.0
05:55 11.9 90.0 1009.8 3.2 ENE 4.8 0.0
06:00 12.0 90.0 1009.6 0.0 ENE 6.4 0.0
06:05 12.1 90.0 1009.8 0.0 ENE 3.2 0.0
06:10 12.3 90.0 1009.9 0.0 ENE 0.0 0.0
06:15 12.6 90.0 1009.9 0.0 ENE 3.2 0.0
06:20 12.8 90.0 1009.8 0.0 ENE 8.0 0.0
06:25 12.9 90.0 1009.9 0.0 ENE 8.0 0.0
06:30 13.1 90.0 1010.0 0.0 ENE 3.2 0.0
06:35 13.2 90.0 1010.0 0.0 ENE 1.6 0.0
06:40 13.2 90.0 1010.1 0.0 ENE 1.6 0.0
06:45 13.1 90.0 1010.1 0.0 ENE 0.0 0.0
06:50 13.2 90.0 1010.1 0.0 ENE 0.0 0.0
06:55 13.3 91.0 1010.1 0.0 ENE 3.2 0.0
07:00 13.4 90.0 1010.2 0.0 ENE 3.2 0.0
07:05 13.6 91.0 1010.1 0.0 ENE 1.6 0.0
07:10 13.8 90.0 1010.2 0.0 ENE 6.4 0.0
07:15 14.0 91.0 1010.2 3.2 ENE 4.8 0.0
07:20 14.3 91.0 1010.2 0.0 ENE 8.0 0.0
07:25 14.4 91.0 1010.2 6.4 ENE 8.0 0.0
07:30 14.3 91.0 1010.2 3.2 ENE 8.0 0.0
07:35 14.1 91.0 1010.2 0.0 ENE 6.4 0.0
07:40 14.2 91.0 1010.3 0.0 ENE 6.4 0.0
07:45 14.6 91.0 1010.3 3.2 ENE 8.0 0.0
07:50 14.8 91.0 1010.4 1.6 ENE 8.0 0.0
Màxima 14.8 91.0 1010.4 6.4 ENE 8.0 0.5
Mínima 11.4 89.0 1009.4
Total 9.3